User: anonymous   Login
Location: Brno
(49.2000°N, 16.6330°E)
Time: 14:25:25
(UTC+01:00)
Language:

BREEZE M DEB (TANK) - Orbit

View from above orbital plane
View from above orbital plane
View from above satellite
View from above satellite

Ground track
Ground track

The orbit data is extracted from the following two-line orbital elements,

1 28359U 04022B   17051.48811774 +.00004139 +00000-0 +50939-3 0  9995
2 28359 049.4857 163.3039 4670729 128.8695 283.0293 06.19700453278060
Epoch (UTC): 20 February 2017 11:42:53
Eccentricity: 0.4670729
inclination: 49.4857°
perigee height: 294 km
apogee height: 11990 km
right ascension of ascending node: 163.3039°
argument of perigee: 128.8695°
revolutions per day: 6.19700453
mean anomaly at epoch: 283.0293°
orbit number at epoch: 27806

The dashed part of the orbit path shows where the satellite is in the earth's shadow,  

DLR